This demonstration page uses our WeatherBlox Daily Observations layout. Learn more.

Hourly Observations for July 3, 2020

Temp ( °F °C ) Dew Point ( °F °C ) Humidity (%) Winds ( mph kmh ) Pressure ( in mb ) Visibility ( mi km ) Precip ( " mm )
12:15 am 00:15 Mostly Cloudy with Light Rain 67 19.4 62 16.7 84 84 SW 15 24 29.96 1015 10 16.0934 0.01 0.254
12:35 am 00:35 Partly Cloudy 67 19.2 63 17 87 87 S 7 11 29.93 1014 10 16.0934 0.02 0.508
12:55 am 00:55 Partly Cloudy with Light Rain 67 19.2 62 16.9 87 87 SW 13 20 29.93 1014 10 16.0934 0.03 0.762
1:15 am 01:15 Partly Cloudy 69 20.8 60 15.7 73 73 S 17 28 29.91 1013 10 16.0934 0 0
1:35 am 01:35 Mostly Cloudy 70 20.9 60 15.6 72 72 SSW 17 28 29.91 1013 10 16.0934 0 0
1:55 am 01:55 Mostly Cloudy with Light Rain 68 20.2 62 16.4 79 79 SSW 12 19 29.94 1014 10 16.0934 0 0
2:15 am 02:15 Cloudy with Light Rain 68 19.9 63 17 83 83 SSW 5 7 29.97 1015 10 16.0934 0 0
2:35 am 02:35 Cloudy with Light Rain 67 19.5 63 17 86 86 SE 6 9 30 1016 10 16.0934 0 0
2:55 am 02:55 Cloudy with Light Rain 67 19.5 63 17.1 86 86 S 16 26 29.98 1015 10 16.0934 0.01 0.254
3:15 am 03:15 Partly Cloudy 70 21.2 60 15.6 71 71 S 17 28 29.91 1013 10 16.0934 0 0
3:35 am 03:35 Clear 68 20.2 61 16.1 77 77 NNE 18 30 30 1016 10 16.0934 0 0
3:55 am 03:55 Clear 69 20.4 61 16 76 76 NE 16 26 29.99 1016 10 16.0934 0 0
4:15 am 04:15 Clear 67 19.6 61 16.3 81 81 NE 8 13 30 1016 10 16.0934 0 0
4:35 am 04:35 Clear 66 19 62 16.5 86 86 Calm 30.03 1017 10 16.0934 0 0
4:55 am 04:55 Clear 65 18.3 62 16.6 90 90 E 7 11 30.04 1017 10 16.0934 0 0
5:15 am 05:15 Clear 66 18.8 62 16.5 87 87 ENE 7 11 30.05 1017 10 16.0934 0 0
5:35 am 05:35 Clear 66 19 62 16.5 86 86 ENE 7 11 30.05 1017 10 16.0934 0 0
5:55 am 05:55 Clear 65 18.4 62 16.5 89 89 NE 6 9 30.07 1018 10 16.0934 0 0
6:15 am 06:15 Sunny 65 18.1 62 16.6 91 91 NW 5 7 30.07 1018 10 16.0934 0 0
6:35 am 06:35 Sunny 65 18.1 62 16.6 91 91 N 7 11 30.08 1019 10 16.0934 0 0
6:55 am 06:55 Sunny 65 18.6 62 16.7 89 89 N 6 9 30.08 1019 10 16.0934 0 0
7:15 am 07:15 Sunny 65 18.5 63 17 91 91 N 5 7 30.07 1018 10 16.0934 0 0
7:35 am 07:35 Sunny 65 18.5 63 17.2 92 92 Calm 30.06 1018 10 16.0934 0 0
7:55 am 07:55 Sunny 66 19 64 17.5 91 91 N 5 7 30.06 1018 10 16.0934 0 0
8:15 am 08:15 Sunny 67 19.5 64 17.8 90 90 ENE 7 11 30.05 1018 10 16.0934 0 0
8:35 am 08:35 Sunny 68 20 64 17.8 87 87 ENE 10 17 30.05 1017 10 16.0934 0 0
8:55 am 08:55 Sunny 68 20.1 64 18 88 88 E 13 20 30.04 1017 10 16.0934 0 0
9:15 am 09:15 Sunny 71 21.7 65 18.6 83 83 ENE 10 17 30.03 1017 10 16.0934 0 0
9:35 am 09:35 Sunny 73 22.9 65 18.4 76 76 E 13 20 30 1016 10 16.0934 0 0
9:55 am 09:55 Sunny 74 23.6 65 18.5 73 73 E 14 22 30 1016 10 16.0934 0 0
10:15 am 10:15 Sunny 77 24.8 66 18.7 69 69 E 12 19 29.98 1015 10 16.0934 0 0
10:35 am 10:35 Sunny 78 25.5 65 18.1 64 64 ESE 9 15 29.97 1015 10 16.0934 0 0
10:55 am 10:55 Sunny 80 26.9 66 19 62 62 ESE 6 9 29.96 1015 10 16.0934 0 0
11:15 am 11:15 Sunny 81 27 64 17.8 57 57 SE 6 9 29.96 1015 10 16.0934 0 0
11:35 am 11:35 Sunny 83 28.1 63 17.4 52 52 SE 6 9 29.96 1015 10 16.0934 0 0
11:55 am 11:55 Sunny 83 28.6 64 17.5 51 51 S 6 9 29.97 1015 10 16.0934 0 0
12:15 pm 12:15 Sunny 84 28.9 62 16.4 47 47 SSE 9 15 29.97 1015 10 16.0934 0 0
12:35 pm 12:35 Sunny 85 29.5 61 16.2 45 45 SSE 10 17 29.96 1015 10 16.0934 0 0
12:55 pm 12:55 Sunny 85 29.6 62 16.7 46 46 S 9 15 29.95 1014 10 16.0934 0 0
1:15 pm 13:15 Sunny 86 29.8 63 17.2 47 47 SSE 8 13 29.95 1014 10 16.0934 0 0
1:35 pm 13:35 Sunny 86 30.2 61 16.2 43 43 S 8 13 29.96 1014 10 16.0934 0 0
1:55 pm 13:55 Sunny 87 30.3 58 14.2 37 37 SE 10 17 29.93 1014 10 16.0934 0 0
2:15 pm 14:15 Sunny 86 30.1 62 16.5 44 44 SE 8 13 29.93 1013 10 16.0934 0 0
2:35 pm 14:35 Sunny 86 30.2 61 16.1 43 43 SSE 7 11 29.95 1014 10 16.0934 0 0
2:55 pm 14:55 Sunny 86 30.2 62 16.8 44 44 SSE 8 13 29.94 1014 10 16.0934 0 0
3:15 pm 15:15 Sunny 86 30.2 62 16.5 44 44 SE 10 17 29.94 1014 10 16.0934 0 0
3:35 pm 15:35 Sunny 86 30.1 62 16.6 44 44 S 7 11 29.94 1014 10 16.0934 0 0
3:55 pm 15:55 Sunny 87 30.5 61 16.3 42 42 S 6 9 29.92 1013 10 16.0934 0 0
4:15 pm 16:15 Sunny 87 30.5 62 16.8 44 44 SSE 8 13 29.92 1013 10 16.0934 0 0
4:35 pm 16:35 Sunny 86 30.2 62 16.7 44 44 SE 3 6 29.93 1013 10 16.0934 0 0
4:55 pm 16:55 Sunny 87 30.5 62 16.8 44 44 ESE 7 11 29.91 1013 10 16.0934 0 0
5:15 pm 17:15 Sunny 87 30.5 62 16.8 44 44 ESE 6 9 29.9 1013 10 16.0934 0 0
5:35 pm 17:35 Sunny 87 30.5 63 17.1 45 45 SSE 8 13 29.9 1013 10 16.0934 0 0
5:55 pm 17:55 Sunny 87 30.5 64 18 47 47 SSE 7 11 29.89 1012 10 16.0934 0 0
6:15 pm 18:15 Sunny 86 30.2 64 17.9 48 48 SSE 7 11 29.9 1012 10 16.0934 0 0
6:35 pm 18:35 Sunny 86 30.1 64 17.8 48 48 ESE 8 13 29.89 1012 10 16.0934 0 0
6:55 pm 18:55 Sunny 86 29.8 64 17.9 49 49 E 7 11 29.89 1012 10 16.0934 0 0
7:15 pm 19:15 Sunny 85 29.5 64 17.9 50 50 E 8 13 29.89 1012 10 16.0934 0 0
7:35 pm 19:35 Sunny 85 29.2 65 18.3 52 52 ESE 6 9 29.89 1012 10 16.0934 0 0
7:55 pm 19:55 Sunny 84 28.7 66 18.9 55 55 ESE 5 7 29.9 1012 10 16.0934 0 0
8:15 pm 20:15 Sunny 82 28 68 19.9 61 61 ESE 5 7 29.89 1012 10 16.0934 0 0
8:35 pm 20:35 Sunny 80 26.7 68 20.1 67 67 ESE 6 9 29.9 1013 10 16.0934 0 0
8:55 pm 20:55 Sunny 79 25.9 69 20.4 72 72 ESE 3 6 29.91 1013 10 16.0934 0 0
9:15 pm 21:15 Clear 78 25.5 69 20.4 73 73 SE 3 6 29.91 1013 10 16.0934 0 0
9:35 pm 21:35 Clear 77 25 68 20.2 75 75 Calm 29.94 1014 10 16.0934 0 0
9:55 pm 21:55 Clear 75 23.7 68 20 80 80 Calm 29.96 1014 10 16.0934 0 0
10:15 pm 22:15 Clear 73 22.5 67 19.7 84 84 SE 3 6 29.98 1015 10 16.0934 0 0
10:35 pm 22:35 Clear 75 24 68 20.2 79 79 Calm 29.98 1015 10 16.0934 0 0
10:55 pm 22:55 Clear 74 23.4 68 20 81 81 S 3 6 30 1016 10 16.0934 0 0
11:15 pm 23:15 Clear 74 23.6 67 19.2 76 76 S 5 7 30 1016 10 16.0934 0 0
11:35 pm 23:35 Clear 74 23.2 65 18.6 75 75 SSW 5 7 29.98 1015 10 16.0934 0 0
11:55 pm 23:55 Clear 72 22 65 18.5 81 81 SSE 3 6 30 1016 10 16.0934 0 0

Powered by AerisWeather